Weather History for KGRD - November, 2012

Change the Weather History Date:

Friday, November 9, 2012

  Actual Average Record
Temperature  
Mean Temperature 49 °F -  
Max Temperature 68 °F - - ()
Min Temperature 30 °F - - ()
Degree Days  
Heating Degree Days 16    
Moisture  
Dew Point 32 °F    
Average Humidity 65    
Maximum Humidity 96    
Minimum Humidity 24    
Precipitation  
Precipitation 0.00 in - - ()
Sea Level Pressure  
Sea Level Pressure 30.25 in    
Wind  
Wind Speed 1 mph (WSW)    
Max Wind Speed 6 mph    
Max Gust Speed -    
Visibility 10 miles    
Events      
T = Trace of Precipitation, MM = Missing Value Source: NWS Daily Summary

Daily Weather History Graph

Daily Weather History Graph

Search for Another Location

Airport or City:

Trip Planner

Search our weather history database for the weather conditions in past years. The results will help you decide how hot, cold, wet, or windy it might be!

Date:

Astronomy

Nov. 09, 2012 Rise Set
Actual Time 6:56 AM EST 5:28 PM EST
Civil Twilight 6:30 AM EST 5:54 PM EST
Nautical Twilight 5:59 AM EST 6:24 PM EST
Astronomical Twilight 5:30 AM EST 6:54 PM EST
Moon 2:05 AM EST (11/9) 2:30 PM EST (11/9)
Length of Visible Light 11h 24m
Length of Day
10h 31m
Waning Crescent, 23% of the Moon is Illuminated
Nov 9
Waning Crescent
Nov 13
New
Nov 20
First Quarter
Nov 28
Full
Dec 6
Last Quarter

Hourly Weather History & Observations

Time (EST) Temp. Dew Point Humidity Pressure Visibility Wind Dir Wind Speed Gust Speed Precip Events Conditions
12:56 AM 35.1 °F 33.1 °F 92% 30.18 in 10.0 mi Calm Calm - N/A   Clear
1:56 AM 34.0 °F 32.0 °F 92% 30.19 in 10.0 mi Calm Calm - N/A   Clear
2:56 AM 33.1 °F 30.9 °F 92% 30.20 in 10.0 mi Calm Calm - N/A   Clear
3:56 AM 32.0 °F 30.0 °F 92% 30.20 in 10.0 mi Calm Calm - N/A   Clear
4:56 AM 30.9 °F 30.0 °F 96% 30.22 in 9.0 mi Calm Calm - N/A   Clear
5:56 AM 30.0 °F 28.9 °F 96% 30.24 in 9.0 mi Calm Calm - N/A   Clear
6:56 AM 30.9 °F 28.9 °F 92% 30.25 in 9.0 mi Calm Calm - N/A   Clear
7:56 AM 34.0 °F 33.1 °F 96% 30.29 in 10.0 mi Calm Calm - N/A   Clear
8:56 AM 45.0 °F 34.0 °F 65% 30.30 in 10.0 mi Calm Calm - N/A   Clear
9:56 AM 53.1 °F 34.0 °F 48% 30.31 in 10.0 mi Calm Calm - N/A   Clear
10:56 AM 57.9 °F 30.9 °F 36% 30.31 in 10.0 mi Calm Calm - N/A   Clear
11:56 AM 62.1 °F 30.9 °F 31% 30.29 in 10.0 mi WSW 4.6 mph - N/A   Clear
12:56 PM 63.0 °F 30.9 °F 30% 30.26 in 10.0 mi Variable 3.5 mph - N/A   Clear
1:56 PM 66.9 °F 30.0 °F 25% 30.24 in 10.0 mi West 5.8 mph - N/A   Clear
2:56 PM 68.0 °F 30.0 °F 24% 30.22 in 10.0 mi Calm Calm - N/A   Clear
3:56 PM 66.9 °F 30.0 °F 25% 30.21 in 10.0 mi Calm Calm - N/A   Clear
4:56 PM 63.0 °F 32.0 °F 31% 30.22 in 10.0 mi SSW 4.6 mph - N/A   Clear
5:56 PM 57.0 °F 33.1 °F 40% 30.23 in 10.0 mi Calm Calm - N/A   Clear
6:56 PM 48.9 °F 35.1 °F 59% 30.25 in 10.0 mi Calm Calm - N/A   Clear
7:56 PM 46.9 °F 36.0 °F 66% 30.25 in 10.0 mi Calm Calm - N/A   Clear
8:56 PM 43.0 °F 36.0 °F 76% 30.27 in 10.0 mi Calm Calm - N/A   Clear
9:56 PM 42.1 °F 37.0 °F 82% 30.27 in 10.0 mi Calm Calm - N/A   Clear
10:56 PM 39.0 °F 34.0 °F 82% 30.27 in 10.0 mi Calm Calm - N/A   Clear
11:56 PM 37.9 °F 34.0 °F 86% 30.27 in 10.0 mi Calm Calm - N/A   Clear